Lid_Strength_Index
12 16 17 15 11 11 12 14 16 14 13 16 17 18 18 17 17 17 17 17 17 17 16 16 15 14 14 15 15 15 15 15 15 15 15 15 15 14 14 14 14 14 13 13
15 19 15 12 12 12 13 15 17 14 12 14 16 17 16 15 15 15 15 15 15 15 15 15 15 15 15 15 15 15 15 14 14 14 14 14 15 14 13 13 13 12 12 12
19 17 14 13 15 15 15 16 16 16 14 14 15 18 16 14 14 14 14 13 13 14 14 13 13 13 12 12 12 12 12 12 12 12 11 12 12 12 12 12 12 11 10 11
17 15 15 15 16 16 17 14 13 14 16 19 15 19 17 15 15 14 14 15 14 14 13 13 13 13 13 12 11 11 11 11 11 10 11 11 12 13 12 12 11 11 10 10
20 18 18 18 18 15 16 13 14 14 16 17 18 21 18 14 16 15 14 14 14 13 14 14 13 13 12 12 12 11 11 11 11 11 11 12 12 12 11 12 11 11 11 10
18 16 17 18 15 14 13 14 15 15 16 23 20 20 19 17 15 14 13 13 13 13 13 13 13 12 13 12 11 11 11 11 11 11 11 12 12 12 12 12 12 12 11 11
18 19 17 16 18 15 16 17 21 21 22 22 19 22 17 14 13 12 12 13 13 12 13 13 14 13 13 13 12 11 11 12 11 11 11 11 12 12 12 12 12 12 12 12
20 20 19 17 19 20 19 20 22 27 23 22 20 25 18 14 12 12 12 12 12 12 12 13 13 13 13 13 12 12 11 11 11 11 11 11 11 12 12 12 12 12 12 12
21 21 18 18 17 18 19 20 20 26 32 26 20 19 17 16 15 13 14 13 13 13 13 13 13 13 13 13 13 12 12 12 11 11 11 11 12 12 12 12 12 12 12 11
20 23 19 19 18 18 19 18 21 22 27 28 21 21 20 18 17 15 14 14 13 13 13 13 13 13 13 13 13 12 12 12 12 11 12 11 12 11 12 12 12 12 12 11
19 19 21 20 20 20 21 20 21 21 22 25 26 21 17 17 16 15 14 13 13 13 13 13 13 13 13 13 13 13 12 12 12 11 11 11 11 11 11 12 12 11 11 11
19 19 24 22 20 19 20 20 19 23 24 23 23 23 17 16 16 15 14 13 13 13 13 13 12 13 13 13 13 13 12 12 11 11 11 11 11 11 12 12 11 11 11 11
20 21 25 23 22 21 22 20 19 22 23 26 26 22 16 17 17 16 15 14 13 13 13 13 13 14 14 13 13 13 12 12 12 11 11 11 12 12 12 11 11 11 11 11
18 21 21 22 21 21 23 21 22 25 27 23 22 20 19 18 18 16 15 15 14 13 13 14 14 14 13 13 13 13 12 12 12 12 12 12 12 11 11 11 11 11 11 12
21 26 25 23 23 23 21 20 21 24 22 23 20 21 16 17 17 16 15 15 15 14 14 14 15 14 14 13 13 12 12 11 11 12 12 12 11 11 11 11 11 11 11 12
20 27 26 28 25 23 23 21 21 20 20 21 20 21 15 15 15 16 16 16 16 16 15 15 14 14 14 13 13 12 12 12 11 12 12 11 11 11 11 11 11 12 12 12
24 26 28 29 26 30 31 24 21 20 20 20 23 18 18 18 17 17 16 16 16 15 15 14 14 14 13 13 12 12 12 11 12 12 12 11 11 12 12 12 12 13 13 12
25 26 26 29 31 32 21 21 20 20 18 18 19 18 17 16 16 16 15 15 15 15 14 14 14 13 13 12 12 12 12 12 12 12 12 12 12 12 12 13 13 13 12 12
21 23 28 29 31 24 21 22 22 22 22 17 18 16 17 17 17 16 14 14 14 15 14 13 12 12 12 12 12 12 12 12 13 13 13 12 12 13 14 14 14 13 12 12
24 24 24 31 31 29 21 22 19 19 25 16 16 16 17 17 20 18 14 14 14 14 15 13 12 12 13 13 13 13 13 14 15 14 14 15 16 15 16 15 14 13 12 11
30 28 27 28 29 25 19 20 19 24 20 18 16 16 17 18 16 15 14 14 13 15 14 14 16 15 14 14 14 15 16 15 14 16 17 17 16 17 16 14 13 13 12 12
26 26 29 29 31 28 19 20 21 17 17 17 17 17 16 15 15 14 14 14 14 15 16 15 16 15 14 15 14 15 16 15 17 18 19 19 18 16 14 15 15 14 12 13
24 21 24 22 22 19 18 18 17 17 17 17 17 17 16 15 15 15 15 14 14 14 14 16 16 15 15 16 14 15 16 17 19 20 20 19 17 15 14 15 15 14 13 14
22 19 22 21 20 19 19 17 17 17 17 17 16 16 15 16 15 15 15 14 14 13 13 15 15 16 15 17 15 15 19 18 19 20 20 18 17 16 15 13 12 13 14 14
21 20 22 22 20 18 18 17 16 16 16 16 16 16 15 15 15 14 14 14 14 13 13 13 13 13 14 15 17 20 19 18 19 19 18 16 15 15 15 14 14 13 13 12
21 21 21 22 17 16 17 16 16 16 16 16 16 16 15 14 15 14 14 14 13 13 13 13 14 15 16 18 20 21 22 20 20 17 16 16 16 16 15 15 15 12 11 10